Weather observations for the past three days for
Corinth
Metric (Imperial)
Date Time (cdt) Wind (kph) Vis. (km) Weather Sky Cond. Temperature (ºC) Relative Humidity Wind Chill (°C) Heat Index (°C) Pressure Precipitation (cm)
Air Dwpt 6 hour altimeter (cm) sea level (mb) 1 hr 3 hr 6 hr
Max. Min.
08 06:55 Calm 12.87 Fair CLR 9 9 100% 76.33 0.0
08 06:35 Calm 0.24 Fog OVC002 8 8 100% 76.3 0.0
08 06:15 Calm 0.24 Fog OVC002 8 8 100% 76.28 0.0
08 05:55 Calm 0.24 Fog OVC002 8 8 100% 76.28 0.0
08 05:35 Calm 0.40 Fog OVC002 8 8 100% 76.28 0.0
08 05:15 Calm 1.21 Fog/Mist OVC002 8 8 100% 76.25 0.0
08 04:55 Calm 1.21 Fog/Mist OVC002 8 8 100% 76.25 0.0
08 04:35 Calm 8.05 Fog/Mist OVC002 8 8 100% 76.23 0.0
08 04:15 Calm 14.48 Overcast OVC002 9 9 100% 76.23 0.0
08 03:55 Calm 6.44 Fog/Mist BKN002 9 9 100% 76.23 0.0
08 03:30 Calm 14.48 Mostly Cloudy BKN002 9 9 100% 76.2 0.0
08 03:15 Calm 14.48 Overcast OVC002 10 10 100% 76.2 0.0
08 02:55 Calm 8.05 Fog/Mist BKN002 10 10 100% 76.23 0.0
08 02:35 Calm 9.66 Fog/Mist OVC002 10 10 100% 76.23 0.0
08 02:15 Calm 11.27 Overcast OVC002 10 10 100% 76.23 0.0
08 01:55 Calm 16.09 Mostly Cloudy BKN002 10 10 100% 76.25 0.0
08 01:35 Calm 1.61 Fog/Mist CLR 10 10 100% 76.25 0.0
08 01:15 Calm 16.09 Fair CLR 11 11 100% 76.25 0.0
08 00:55 Calm 16.09 Fair CLR 11 11 100% 76.25 0.0
08 00:35 Calm 16.09 Fair CLR 11 11 100% 76.28 0.0
08 00:15 Calm 16.09 Fair CLR 11 11 100% 76.25 0.0
07 23:55 Calm 16.09 Fair CLR 11 11 100% 76.28 0.0
07 23:35 Calm 16.09 Fair CLR 11 11 100% 76.28 0.0
07 23:15 Calm 16.09 Fair CLR 12 11 94% 76.28 0.0
07 22:55 Calm 16.09 Fair CLR 12 11 94% 76.25 0.0
07 22:35 Calm 16.09 Fair CLR 12 12 100% 76.25 0.0
07 22:15 Calm 16.09 Fair CLR 13 12 94% 76.25 0.0
07 21:55 Calm 16.09 Fair CLR 13 11 88% 76.25 0.0
07 21:35 Calm 16.09 Fair CLR 13 12 94% 76.25 0.0
07 21:15 Calm 16.09 Fair CLR 14 12 88% 76.23 0.0
07 20:55 Calm 16.09 Fair CLR 14 11 82% 76.23 0.0
07 20:35 Calm 16.09 Fair CLR 15 11 77% 76.2 0.0
07 20:15 Calm 16.09 Fair CLR 15 10 72% 76.2 0.0
07 19:55 Calm 16.09 Fair CLR 16 9 63% 76.2 0.0
07 19:35 NW 7 16.09 Fair CLR 17 8 56% 76.17 0.0
07 19:15 NW 9 16.09 Fair CLR 18 8 52% 76.17 0.0
07 18:55 NW 9 16.09 Fair CLR 19 8 49% 76.15 0.0
07 18:35 NW 9 16.09 Fair CLR 19 8 49% 76.15 0.0
07 18:15 W 11 16.09 Fair CLR 19 7 46% 76.15 0.0
07 17:55 NW 11 16.09 Fair CLR 20 8 46% 76.15 0.0
07 17:35 W 7 G 19 16.09 Fair CLR 20 8 46% 76.15 0.0
07 17:15 NW 15 16.09 Fair CLR 20 8 46% 76.15 0.0
07 16:55 NW 7 16.09 Fair CLR 20 8 46% 76.15 0.0
07 16:30 Calm 16.09 Fair CLR 20 7 43% 76.15 0.0
07 16:15 NW 7 16.09 Fair CLR 20 8 46% 76.12 0.0
07 15:55 NW 9 G 19 16.09 Fair CLR 20 8 46% 76.15 0.0
07 15:35 Calm 16.09 Fair CLR 20 7 43% 76.17 0.0
07 15:15 W 13 16.09 Fair CLR 20 8 46% 76.17 0.0
07 14:55 N 13 16.09 Fair CLR 20 8 46% 76.2 0.0
07 14:35 Vrbl 9 G 22 16.09 Fair CLR 20 7 43% 76.2 0.0
07 14:15 N 19 16.09 Fair CLR 20 7 43% 76.2 0.0
07 13:55 N 15 G 26 16.09 Fair CLR 20 8 46% 76.2 0.0
07 13:35 N 15 16.09 Fair CLR 20 8 46% 76.2 0.0
07 13:15 N 17 16.09 Fair CLR 19 8 49% 76.23 0.0
07 12:55 N 19 16.09 Fair CLR 19 8 49% 76.23 0.0
07 12:35 Vrbl 7 G 20 16.09 Fair CLR 18 8 52% 76.25 0.0
07 12:15 Vrbl 11 16.09 Fair CLR 18 9 56% 76.25 0.0
07 11:55 N 13 16.09 Fair CLR 18 8 52% 76.28 0.0
07 11:35 N 13 G 22 16.09 Fair CLR 18 8 52% 76.3 0.0
07 11:15 NE 17 G 35 16.09 Fair CLR 17 8 56% 76.3 0.0
07 10:55 N 15 16.09 Fair CLR 17 8 56% 76.3 0.0
07 10:35 N 11 G 20 16.09 Fair CLR 17 9 60% 76.33 0.0
07 10:15 NE 17 16.09 Fair CLR 16 9 63% 76.33 0.0
07 09:55 NE 20 16.09 Fair CLR 16 9 63% 76.33 0.0
07 09:35 NE 15 G 26 16.09 Fair CLR 15 9 68% 76.3 0.0
07 09:15 N 15 G 26 16.09 Fair CLR 15 10 72% 76.28 0.0
07 08:55 N 15 16.09 Fair CLR 14 10 77% 76.28 0.0
07 08:35 N 15 16.09 Fair CLR 14 10 77% 76.28 0.0
07 08:15 Vrbl 9 G 20 16.09 Fair CLR 13 10 82% 76.28 0.0
07 07:55 N 11 16.09 Fair CLR 12 10 88% 76.25 0.0
07 07:35 N 13 16.09 Fair CLR 12 10 88% 76.23 0.0
07 07:15 N 7 16.09 Fair CLR 11 10 94% 76.23 0.0
07 06:55 NW 9 16.09 Fair CLR 10 10 100% 9 76.23 0.0
07 06:35 NW 9 16.09 Fair CLR 10 10 100% 9 76.2 0.0
07 06:15 N 11 16.09 Fair CLR 10 10 100% 9 76.17 0.0
07 05:55 NW 9 16.09 Fair CLR 10 10 100% 9 76.17 0.0
07 05:30 NW 9 16.09 Fair CLR 10 10 100% 9 76.12 0.0
07 05:15 N 7 16.09 Fair CLR 11 10 94% 76.12 0.0
07 04:55 NW 7 16.09 A Few Clouds FEW080 11 10 94% 76.12 0.0
07 04:35 Calm 16.09 Mostly Cloudy SCT065 BKN080 11 11 100% 76.12 0.0
07 04:15 N 7 16.09 Overcast OVC065 11 11 100% 76.1 0.0
07 03:55 N 7 16.09 Overcast OVC065 12 11 94% 76.1 0.0
07 03:35 N 7 16.09 Overcast OVC065 12 11 94% 76.1 0.0
07 03:15 Calm 16.09 Overcast SCT055 OVC065 12 11 94% 76.1 0.0
07 02:55 N 7 16.09 Mostly Cloudy FEW042 SCT055 BKN065 12 11 94% 76.1 0.0
07 02:35 N 7 16.09 Overcast SCT042 BKN065 OVC100 12 11 94% 76.12 0.0
07 02:15 N 7 16.09 Overcast OVC065 12 12 100% 76.12 0.0
07 01:55 N 9 16.09 Overcast OVC065 12 12 100% 76.12 0.0
07 01:35 N 9 16.09 Overcast OVC065 12 12 100% 76.12 0.0
07 01:15 Calm 16.09 Overcast BKN070 OVC100 12 12 100% 76.15 0.0
07 00:55 NE 6 16.09 Thunderstorm in Vicinity BKN070 OVC100 12 12 100% 76.1 0.0
07 00:35 NE 7 16.09 Overcast FEW012 FEW050 OVC100 12 12 100% 76.1 0.0
07 00:15 NE 9 G 22 16.09 Light Drizzle FEW013 FEW046 OVC100 12 12 100% 76.12 0.0
06 23:55 N 11 16.09 Overcast SCT013 SCT018 OVC090 12 12 100% 76.12 0.0
06 23:35 N 11 16.09 Overcast FEW012 BKN018 OVC090 12 12 100% 76.12 0.0
06 23:15 N 17 16.09 Light Drizzle OVC018 12 12 100% 76.1 0.0
06 22:55 N 11 16.09 Overcast BKN012 OVC017 12 12 100% 76.17 0.0
06 22:35 N 11 16.09 Overcast OVC012 13 12 94% 76.15 0.0
06 22:10 Vrbl 9 16.09 Overcast OVC012 13 12 94% 76.12 0.0
06 21:55 N 9 16.09 Overcast OVC011 13 12 94% 76.15 0.0
06 21:35 N 11 16.09 Overcast BKN010 OVC013 13 12 94% 76.1 0.0
06 21:15 NE 9 16.09 Overcast BKN010 OVC015 13 12 94% 76.07 0.0
06 20:55 N 15 16.09 Overcast FEW006 BKN010 OVC013 13 12 94% 76.07 0.0
06 20:35 N 11 G 22 16.09 Overcast BKN007 OVC012 12 12 100% 76.02 0.0
06 20:15 N 15 16.09 Overcast OVC007 13 12 94% 76.05 0.0
06 19:55 N 17 16.09 Overcast OVC007 13 13 100% 76.05 0.0
06 19:35 Vrbl 9 16.09 Overcast OVC006 13 13 100% 76.07 0.0
06 19:15 N 11 16.09 Overcast OVC007 13 13 100% 76.05 0.0
06 18:55 N 9 16.09 Overcast OVC006 13 13 100% 76.05 0.0
06 18:35 N 13 16.09 Overcast OVC006 13 13 100% 76.02 0.0
06 18:15 Vrbl 7 16.09 Overcast OVC007 13 13 100% 76.05 0.0
06 17:55 NE 17 16.09 Overcast OVC007 13 13 100% 75.95 0.0
06 17:35 N 11 16.09 Overcast BKN007 OVC011 13 13 100% 76.02 0.0
06 17:15 NE 9 16.09 Mostly Cloudy BKN009 BKN013 BKN034 13 13 100% 76.02 0.0
06 16:55 N 9 4.83 Rain BKN008 BKN013 BKN034 13 13 100% 76.02 0.0 0.2
06 16:35 NW 11 4.02 Rain OVC008 12 12 100% 76.07 0.0
06 16:15 N 17 G 33 11.27 Light Rain OVC006 12 12 100% 76 0.0
06 15:55 N 15 G 28 16.09 Thunderstorm in Vicinity BKN006 OVC010 13 13 100% 76.1 0.0 0.05
06 15:35 N 13 16.09 Thunderstorm in Vicinity BKN007 OVC012 13 13 100% 76.1 0.0
06 15:15 N 9 9.66 Thunderstorm BKN006 BKN010 OVC030 13 13 100% 76.05 0.0
06 14:50 N 15 G 28 6.44 Light Drizzle SCT008 BKN012 OVC038 13 13 100% 76 0.0
06 14:35 NW 13 14.48 Light Rain BKN007 BKN013 BKN038 14 14 100% 76.02 0.0
06 14:15 NW 13 14.48 Light Drizzle BKN006 BKN011 14 14 100% 76.05 0.0
06 13:55 N 13 8.05 Light Rain BKN006 BKN009 BKN023 14 14 100% 76.02 0.0 0.05
06 13:35 N 11 G 20 16.09 Light Drizzle OVC006 14 14 100% 76.02 0.0
06 13:15 Vrbl 7 G 19 9.66 Light Rain OVC005 14 14 100% 76.05 0.0
06 12:55 N 11 16.09 Overcast BKN007 OVC012 14 14 100% 76.05 0.0 0.03
06 12:35 N 13 16.09 Overcast BKN009 OVC013 14 14 100% 76.05 0.0
06 12:15 N 15 11.27 Light Drizzle BKN006 BKN009 14 14 100% 76.02 0.0
06 11:55 N 11 16.09 Light Drizzle BKN006 BKN009 BKN013 14 14 100% 76.02 0.0 0.18
06 11:35 N 13 16.09 Light Drizzle BKN005 BKN009 BKN012 14 14 100% 76 0.0
06 11:10 NW 13 4.83 Thunderstorm in Vicinity Rain OVC006 14 14 100% 76.07 0.0
06 10:55 Calm 14.48 Thunderstorm Light Rain OVC005 14 14 100% 75.95 0.0 1.85
06 10:35 Vrbl 7 3.22 Thunderstorm Light Rain OVC003 14 14 100% 75.95 0.0
06 10:15 Calm 0.40 Thunderstorm in Vicinity Rain OVC004 14 14 100% 75.97 0.0
06 09:55 N 15 G 26 12.87 Thunderstorm in Vicinity Drizzle OVC005 14 14 100% 76 0.0
06 09:35 N 15 16.09 Overcast OVC004 14 14 100% 75.97 0.0
06 09:15 Vrbl 11 11.27 Overcast OVC003 14 14 100% 75.95 0.0
06 08:55 NW 17 16.09 Thunderstorm in Vicinity OVC004 15 15 100% 75.95 0.0
06 08:35 NW 11 16.09 Overcast OVC004 15 15 100% 75.92 0.0
06 08:15 NW 19 16.09 Overcast BKN005 BKN013 OVC085 16 16 100% 75.9 0.0
06 07:55 NW 9 16.09 Mostly Cloudy FEW004 BKN085 BKN100 16 16 100% 75.84 0.0 0.05
06 07:30 Calm 16.09 Mostly Cloudy SCT005 BKN100 16 16 100% 75.79 0.0
06 07:15 SW 7 16.09 Mostly Cloudy BKN006 BKN009 BKN033 15 15 100% 75.79 0.0
06 06:55 NW 9 8.05 Light Rain BKN006 OVC010 16 16 100% 75.82 0.0 0.38
06 06:35 W 11 G 22 16.09 Overcast BKN005 BKN011 OVC038 16 16 100% 75.82 0.0
06 06:15 NW 9 9.66 Thunderstorm in Vicinity Rain BKN004 BKN023 OVC050 17 17 100% 75.77 0.0
06 05:55 W 22 2.01 Thunderstorm Heavy Rain BKN003 BKN011 OVC021 17 17 100% 75.9 0.0 1.37
06 05:35 Calm 6.44 Thunderstorm Rain SCT004 BKN013 OVC055 17 17 100% 75.69 0.0
06 05:15 N 13 2.41 Thunderstorm Heavy Rain OVC003 18 18 100% 75.67 0.0
06 04:55 Vrbl 9 G 31 0.80 Thunderstorm Heavy Rain OVC003 20 19 94% 75.64 0.0 1.04
06 04:35 SW 11 16.09 Thunderstorm in Vicinity OVC021 22 20 88% 75.62 0.0
06 04:15 S 17 16.09 Thunderstorm in Vicinity OVC021 22 20 88% 75.57 0.0
06 03:50 S 17 16.09 Thunderstorm in Vicinity OVC022 22 20 88% 75.54 0.0
06 03:35 S 15 G 26 16.09 Thunderstorm in Vicinity OVC022 21 20 94% 75.54 0.0
06 03:15 S 20 16.09 Thunderstorm in Vicinity BKN023 OVC075 21 20 94% 75.54 0.0
06 02:55 S 15 G 28 16.09 Thunderstorm in Vicinity BKN025 BKN031 OVC038 21 19 88% 75.54 0.0
06 02:35 S 17 G 30 14.48 Overcast BKN028 BKN036 OVC090 22 19 83% 75.59 0.0
06 02:15 S 22 G 31 16.09 Thunderstorm in Vicinity FEW030 FEW036 BKN085 22 19 83% 75.59 0.0
06 01:55 S 17 G 33 16.09 Partly Cloudy FEW034 SCT085 22 19 83% 75.59 0.0
06 01:35 S 22 G 35 16.09 Mostly Cloudy BKN034 22 18 78% 75.59 0.0
06 01:15 S 17 G 31 16.09 A Few Clouds FEW028 FEW036 22 18 78% 75.57 0.0
06 00:55 S 22 G 33 16.09 A Few Clouds FEW075 21 18 83% 75.57 0.0
06 00:35 S 20 G 31 16.09 Partly Cloudy FEW041 SCT075 22 18 78% 75.59 0.0
06 00:15 S 19 16.09 Overcast FEW035 SCT041 OVC075 22 18 78% 75.64 0.0
05 23:55 S 15 G 28 16.09 Mostly Cloudy BKN080 21 18 83% 75.64 0.0
05 23:35 S 17 G 30 16.09 Overcast SCT038 OVC075 21 18 83% 75.64 0.0
05 23:15 S 17 16.09 Overcast BKN038 BKN048 OVC075 21 18 83% 75.67 0.0
05 22:55 S 13 16.09 Overcast BKN037 BKN045 OVC050 21 17 78% 75.67 0.0
05 22:35 S 11 16.09 Overcast BKN038 OVC047 21 17 78% 75.72 0.0
05 22:15 S 13 16.09 Overcast BKN039 OVC046 21 17 78% 75.72 0.0
05 21:55 S 13 16.09 Overcast BKN037 OVC044 21 17 78% 75.69 0.0
05 21:35 S 13 16.09 Overcast OVC038 21 17 78% 75.69 0.0
05 21:15 S 11 16.09 Overcast OVC038 21 17 78% 75.69 0.0
05 20:55 S 9 G 20 16.09 Overcast OVC038 21 17 78% 75.67 0.0
05 20:35 S 13 G 24 16.09 Overcast OVC038 21 17 78% 75.67 0.0
05 20:15 S 11 G 24 16.09 Overcast OVC040 21 17 78% 75.67 0.0
05 19:55 S 19 16.09 Overcast OVC041 21 17 78% 75.62 0.0
05 19:35 S 15 G 30 16.09 Overcast OVC043 21 17 78% 75.64 0.0
05 19:15 S 22 16.09 Overcast SCT031 OVC041 22 17 73% 75.64 0.0
05 18:55 S 15 16.09 Overcast OVC034 22 17 73% 75.67 0.0
05 18:35 S 15 G 26 16.09 Overcast OVC035 22 17 73% 75.67 0.0
05 18:15 S 19 G 28 16.09 Overcast OVC035 22 17 73% 75.67 0.0
05 17:55 S 19 G 30 16.09 Overcast OVC036 22 16 69% 75.64 0.0
05 17:35 S 19 16.09 Overcast OVC038 22 16 69% 75.67 0.0
05 17:15 S 17 16.09 Overcast OVC039 22 16 69% 75.69 0.0
05 16:55 S 13 G 26 16.09 Overcast OVC036 22 16 69% 75.69 0.0
05 16:35 S 20 16.09 Overcast OVC036 22 16 69% 75.72 0.0
05 16:15 S 20 16.09 Overcast OVC035 22 16 69% 75.72 0.0
05 15:55 S 24 G 37 16.09 Overcast OVC036 22 16 69% 75.72 0.0
05 15:35 S 20 16.09 Overcast OVC037 22 16 69% 75.72 0.0
05 15:15 S 28 G 43 16.09 Overcast OVC036 22 15 65% 75.74 0.0
05 14:55 S 26 G 39 16.09 Overcast BKN038 OVC047 22 15 65% 75.77 0.0
05 14:35 S 31 G 43 16.09 Mostly Cloudy FEW038 SCT044 BKN049 21 15 69% 75.77 0.0
05 14:15 S 30 G 50 16.09 Partly Cloudy SCT041 SCT049 SCT070 23 16 65% 75.77 0.0
05 13:55 S 31 G 41 16.09 Partly Cloudy FEW042 SCT049 SCT070 23 16 65% 75.79 0.0 0.03
05 13:35 S 30 G 41 16.09 A Few Clouds FEW110 23 16 65% 75.79 0.0
05 13:10 SE 30 16.09 Fair CLR 21 16 73% 75.82 0.0
05 12:55 SE 22 G 33 16.09 A Few Clouds FEW055 21 17 78% 75.84 0.0 0.08
05 12:35 SE 15 9.66 Light Rain BKN055 19 17 88% 75.87 0.0
05 12:15 SE 13 9.66 Light Rain CLR 18 17 94% 75.92 0.0
05 11:55 S 7 11.27 Light Rain CLR 18 16 88% 75.95 0.0 0.08
05 11:35 SE 11 11.27 Light Rain FEW110 18 16 88% 75.95 0.0
05 11:15 SE 13 16.09 Light Drizzle CLR 18 16 88% 75.95 0.0
05 10:55 SE 13 9.66 Light Drizzle FEW034 SCT048 BKN065 18 15 83% 75.92 0.0
05 10:35 SE 15 14.48 Light Drizzle FEW055 BKN070 BKN085 19 14 73% 75.97 0.0
05 10:15 S 13 16.09 Mostly Cloudy BKN060 BKN065 20 14 69% 75.97 0.0
05 09:55 SW 11 16.09 Overcast FEW047 OVC060 19 14 73% 75.97 0.0
05 09:35 S 7 16.09 Overcast OVC060 19 14 73% 75.97 0.0
05 09:15 S 7 16.09 Overcast OVC060 18 13 73% 75.97 0.0
05 08:55 S 9 16.09 Mostly Cloudy BKN055 17 13 77% 75.97 0.0
05 08:35 S 9 16.09 Fair CLR 16 13 83% 75.95 0.0
05 08:15 S 13 16.09 Fair CLR 15 13 88% 75.95 0.0
05 07:55 S 7 16.09 Fair CLR 15 13 88% 75.95 0.0
05 07:35 SE 11 16.09 Fair CLR 15 13 88% 75.92 0.0
05 07:15 S 9 16.09 Fair CLR 14 13 94% 75.92 0.0
Date Time (cdt) Wind (kph) Vis. (km) Weather Sky Cond. Air Dwpt Max. Min. Relative Humidity Wind Chill (°C) Heat Index (°C) altimeter (cm) sea level (mb) 1 hr 3 hr 6 hr
6 hour
Temperature (ºC) Pressure Precipitation (cm)